"startDT [UTC]","vpos","CH4 [ppm]","stdev(CH4) [ppm]","CO2 [ppm]","stdev(CO2) [ppm]","H2O_reported [%]","stdev(H2O_reported)","CavityPressure [torr]","CavityTemp [C]","OutletValve","CH4_dry [ppm]","CO2_dry [ppm]","DasTemp [C]","EtalonTemp [C]","WarmBoxTemp [C]","MPVPosition","T_ECpre [C]","T_EC1 [C]","T_EC2 [C]","p_inlet [hPa]","p_in [hPa]","p_out [hPa]","T_inlet [C]","RH_inlet [%]","dwpt_inlet [C]","T_vent [C]","RH_vent [%]","dwpt_vent [C]","flow_vent [l min-1]","flow_inlet [l min-1]","dwpt_sample [C]","T_room [C]"
2013-07-25 00:00:00,3.0,1.86977,0.00386,395.253,8.027,0.2340,0.3998,139.953,45.000,31137.48019,1.87480,395.958,42.621,45.049,45.000,0.00,0.13,-272.52,-272.60,-36,438,-18,33.2,18.2,5.8,33.0,18.9,6.2,5.73,2.44,11.1,36.1
2013-07-25 00:01:00,3.0,1.87611,0.00054,397.144,0.069,0.0378,0.0026,139.998,45.000,31090.54107,1.87671,397.337,42.625,45.049,45.000,0.00,0.13,-272.52,-272.60,-36,438,-17,33.2,18.2,5.8,33.0,19.0,6.2,5.73,2.48,11.1,36.0
2013-07-25 00:02:00,3.0,1.87675,0.00031,397.125,0.030,0.0304,0.0024,140.002,45.001,31071.08611,1.87728,397.271,42.626,45.049,45.001,0.00,0.13,-272.51,-272.60,-36,437,-17,33.2,18.4,6.0,33.0,19.2,6.5,5.73,2.39,11.1,36.1
2013-07-25 00:03:00,3.0,1.87644,0.00029,397.303,0.066,0.0247,0.0029,139.997,45.000,31056.60702,1.87696,397.414,42.625,45.049,45.001,0.00,0.13,-272.52,-272.60,-35,437,-17,33.3,18.1,5.8,33.0,18.9,6.2,5.73,2.39,11.1,36.1
2013-07-25 00:04:00,3.0,1.87615,0.00033,397.492,0.054,0.0180,0.0018,140.002,45.000,31046.77122,1.87651,397.571,42.636,45.049,45.001,0.00,0.13,-272.52,-272.60,-35,437,-18,33.3,18.2,5.9,33.0,19.0,6.3,5.73,2.47,11.1,36.1
2013-07-25 00:05:00,3.0,1.87657,0.00032,397.607,0.038,0.0141,0.0019,140.000,45.000,31034.22843,1.87675,397.673,42.657,45.049,45.001,0.00,0.13,-272.52,-272.60,-36,437,-18,33.3,18.1,5.9,33.1,18.9,6.3,5.73,2.43,11.1,36.0
2013-07-25 00:06:00,3.0,1.87668,0.00033,397.648,0.037,0.0103,0.0009,139.999,45.001,31024.99535,1.87692,397.699,42.666,45.049,45.001,0.00,0.13,-272.52,-272.59,-36,437,-18,33.3,18.1,5.9,33.1,18.9,6.3,5.73,2.37,11.1,35.9
2013-07-25 00:07:00,3.0,1.87681,0.00040,397.683,0.033,0.0097,0.0022,139.998,45.001,31015.23292,1.87696,397.730,42.680,45.049,45.000,0.00,0.13,-272.52,-272.60,-36,437,-18,33.3,18.1,5.9,33.1,18.9,6.3,5.73,2.45,11.2,35.9
2013-07-25 00:08:00,3.0,1.87665,0.00033,397.677,0.017,0.0072,0.0022,139.995,45.000,31010.50369,1.87677,397.710,42.688,45.049,45.000,0.00,0.13,-272.52,-272.60,-35,437,-18,33.4,18.0,5.8,33.1,18.8,6.2,5.73,2.47,11.2,35.9
2013-07-25 00:09:00,3.0,1.87664,0.00046,397.723,0.028,0.0073,0.0021,139.998,45.000,31007.37560,1.87679,397.755,42.688,45.049,45.000,0.00,0.13,-272.51,-272.60,-36,438,-18,33.4,18.1,5.9,33.1,18.9,6.3,5.73,2.38,11.2,36.1
2013-07-25 00:10:00,3.0,1.87662,0.00041,397.721,0.029,0.0061,0.0017,140.000,45.000,31006.14062,1.87674,397.751,42.691,45.049,45.000,0.00,0.13,-272.52,-272.60,-36,438,-18,33.4,18.1,5.9,33.1,18.8,6.2,5.73,2.40,11.2,36.0
2013-07-25 00:11:00,3.0,1.87687,0.00021,397.747,0.033,0.0042,0.0017,140.004,45.000,31002.51754,1.87694,397.767,42.688,45.049,45.001,0.00,0.13,-272.52,-272.60,-36,438,-18,33.4,18.1,5.9,33.2,18.8,6.3,5.73,2.48,11.2,35.9
2013-07-25 00:12:00,3.0,1.87693,0.00044,397.745,0.026,0.0044,0.0016,139.999,45.000,30996.12945,1.87699,397.767,42.693,45.049,45.001,0.00,0.13,-272.52,-272.60,-36,438,-18,33.4,18.0,5.9,33.2,18.8,6.3,5.73,2.42,11.2,36.0
2013-07-25 00:13:00,3.0,1.87715,0.00031,397.760,0.029,0.0037,0.0020,139.999,45.000,30992.44604,1.87718,397.777,42.708,45.049,45.000,0.00,0.13,-272.51,-272.59,-36,438,-18,33.4,17.8,5.7,33.2,18.6,6.1,5.73,2.37,11.2,36.1
2013-07-25 00:14:00,3.0,1.87715,0.00043,397.738,0.032,0.0043,0.0012,139.998,45.000,30992.35943,1.87726,397.759,42.716,45.049,45.001,0.00,0.13,-272.52,-272.60,-36,438,-18,33.5,18.1,6.0,33.2,18.9,6.4,5.73,2.45,11.2,36.1
2013-07-25 00:15:00,3.0,1.87724,0.00032,397.785,0.021,0.0028,0.0016,139.999,45.000,30990.30726,1.87727,397.797,42.744,45.049,45.001,0.00,0.13,-272.51,-272.60,-36,438,-18,33.5,18.2,6.1,33.2,19.0,6.5,5.73,2.46,11.2,36.1
2013-07-25 00:16:00,3.0,1.87709,0.00030,397.788,0.029,0.0022,0.0022,139.997,45.000,30989.40848,1.87718,397.798,42.748,45.049,45.001,0.00,0.13,-272.51,-272.59,-36,438,-18,33.5,18.1,6.0,33.2,18.9,6.4,5.73,2.37,11.2,35.9
2013-07-25 00:17:00,3.0,1.87690,0.00031,397.796,0.021,0.0025,0.0015,139.997,45.000,30988.72310,1.87692,397.809,42.749,45.049,45.001,0.00,0.13,-272.52,-272.60,-36,438,-18,33.6,18.4,6.2,33.3,19.1,6.6,5.73,2.41,11.2,35.9
2013-07-25 00:18:00,3.0,1.87716,0.00027,397.794,0.034,0.0026,0.0016,139.995,45.000,30986.76334,1.87723,397.804,42.750,45.049,45.001,0.00,0.13,-272.52,-272.60,-36,438,-18,33.6,18.3,6.2,33.3,19.0,6.6,5.73,2.48,11.2,36.0
2013-07-25 00:19:00,3.0,1.87745,0.00052,397.795,0.030,0.0032,0.0017,140.002,45.000,30987.30790,1.87748,397.811,42.750,45.049,45.001,0.00,0.13,-272.51,-272.59,-36,438,-18,33.6,18.2,6.1,33.3,18.9,6.5,5.73,2.40,11.2,36.0
2013-07-25 00:20:00,0.0,1.87575,0.00685,381.306,7.500,0.9983,0.4114,140.091,45.000,32017.16087,1.89407,386.421,42.751,45.049,45.001,0.00,0.13,-272.52,-272.59,-36,602,-18,33.6,18.0,6.0,33.3,18.7,6.3,5.73,2.42,11.3,36.0
2013-07-25 00:21:00,0.0,1.87020,0.00154,376.883,0.146,1.2369,0.0148,140.000,45.000,32124.53855,1.89402,382.727,42.756,45.049,45.001,0.00,0.13,-272.52,-272.60,-36,602,-18,33.6,18.1,6.1,33.4,18.9,6.5,5.73,2.47,11.3,36.0
2013-07-25 00:22:00,0.0,1.86954,0.00062,376.973,0.076,1.2363,0.0096,140.001,45.000,32141.75393,1.89328,382.805,42.750,45.049,45.001,0.00,0.13,-272.52,-272.60,-36,602,-18,33.7,18.0,6.0,33.4,18.8,6.4,5.73,2.44,11.3,35.9
2013-07-25 00:23:00,0.0,1.86872,0.00100,376.990,0.054,1.2336,0.0081,140.002,45.001,32160.46260,1.89245,382.814,42.758,45.049,45.001,0.00,0.13,-272.51,-272.60,-36,602,-18,33.6,17.9,5.9,33.4,18.7,6.3,5.73,2.37,11.3,36.0
2013-07-25 00:24:00,0.0,1.86762,0.00069,376.946,0.075,1.2411,0.0070,139.999,45.000,32172.26359,1.89142,382.801,42.793,45.049,45.001,0.00,0.13,-272.52,-272.60,-36,603,-18,33.7,18.0,6.0,33.4,18.7,6.4,5.73,2.45,11.3,36.0
2013-07-25 00:25:00,0.0,1.86765,0.00088,376.954,0.057,1.2391,0.0063,140.001,45.001,32184.89523,1.89125,382.811,42.802,45.049,45.001,0.00,0.13,-272.52,-272.60,-36,602,-18,33.7,17.9,6.0,33.4,18.6,6.3,5.73,2.47,11.3,36.1
2013-07-25 00:26:00,0.0,1.86846,0.00055,376.782,0.040,1.2400,0.0077,139.997,45.000,32194.88257,1.89221,382.637,42.801,45.049,45.001,0.00,0.13,-272.51,-272.59,-36,602,-18,33.7,17.9,6.0,33.4,18.6,6.4,5.73,2.38,11.3,36.1
2013-07-25 00:27:00,0.0,1.86836,0.00037,376.735,0.085,1.2464,0.0104,139.999,45.001,32204.63366,1.89226,382.612,42.813,45.049,45.001,0.00,0.13,-272.52,-272.60,-36,603,-18,33.7,18.0,6.0,33.5,18.7,6.4,5.73,2.41,11.3,36.0
2013-07-25 00:28:00,0.0,1.86902,0.00050,376.867,0.192,1.2470,0.0116,140.000,45.001,32211.42693,1.89280,382.752,42.813,45.049,45.001,0.00,0.13,-272.52,-272.60,-36,603,-18,33.7,18.0,6.1,33.5,18.7,6.4,5.73,2.48,11.3,36.1
2013-07-25 00:29:00,0.0,1.86904,0.00116,376.900,0.109,1.2440,0.0123,140.002,45.001,32219.87854,1.89306,382.765,42.816,45.049,45.001,0.00,0.13,-272.52,-272.60,-36,603,-18,33.7,17.8,6.0,33.5,18.6,6.4,5.73,2.42,11.3,36.2
2013-07-25 00:30:00,0.0,1.86982,0.00171,377.131,0.062,1.2410,0.0079,140.003,45.001,32225.04907,1.89349,382.994,42.839,45.049,45.001,0.00,0.13,-272.52,-272.60,-36,603,-18,33.7,17.9,5.9,33.5,18.6,6.3,5.73,2.37,11.3,36.2
2013-07-25 00:31:00,0.0,1.86923,0.00031,377.205,0.065,1.2297,0.0076,140.000,45.001,32226.42784,1.89267,383.006,42.855,45.049,45.001,0.00,0.13,-272.52,-272.60,-36,603,-18,33.7,17.6,5.8,33.5,18.4,6.2,5.73,2.46,11.3,36.2
2013-07-25 00:32:00,0.0,1.86865,0.00071,377.206,0.083,1.2281,0.0139,140.003,45.001,32233.29874,1.89230,383.010,42.871,45.049,45.001,0.00,0.13,-272.51,-272.60,-36,603,-18,33.7,17.6,5.8,33.5,18.3,6.2,5.73,2.46,11.4,36.3
2013-07-25 00:33:00,0.0,1.86795,0.00098,377.304,0.214,1.2222,0.0153,139.999,45.001,32237.26580,1.89115,383.070,42.875,45.049,45.001,0.00,0.13,-272.51,-272.60,-36,603,-18,33.7,17.5,5.7,33.5,18.2,6.1,5.73,2.37,11.4,36.2
2013-07-25 00:34:00,0.0,1.86831,0.00077,377.236,0.230,1.2305,0.0171,140.004,45.001,32240.47878,1.89194,383.054,42.875,45.049,45.001,0.00,0.13,-272.52,-272.60,-36,603,-18,33.8,17.6,5.8,33.5,18.4,6.2,5.73,2.42,11.4,36.3
2013-07-25 00:35:00,0.0,1.86883,0.00097,376.810,0.097,1.2566,0.0100,139.998,45.001,32243.18832,1.89270,382.755,42.875,45.049,45.001,0.00,0.13,-272.51,-272.60,-36,603,-18,33.8,18.0,6.1,33.5,18.7,6.5,5.73,2.48,11.4,36.2
2013-07-25 00:36:00,0.0,1.86935,0.00098,376.850,0.099,1.2483,0.0093,139.998,45.001,32245.45909,1.89349,382.732,42.875,45.049,45.001,0.00,0.13,-272.51,-272.60,-36,603,-18,33.8,17.9,6.0,33.5,18.6,6.4,5.73,2.40,11.4,36.3
2013-07-25 00:37:00,0.0,1.86867,0.00052,377.087,0.106,1.2339,0.0071,140.001,45.001,32251.23202,1.89229,382.910,42.877,45.049,45.001,0.00,0.13,-272.52,-272.59,-36,603,-18,33.8,17.6,5.8,33.5,18.4,6.2,5.73,2.38,11.4,36.3
2013-07-25 00:38:00,0.0,1.86831,0.00044,377.223,0.067,1.2303,0.0043,140.002,45.001,32254.52187,1.89188,383.031,42.877,45.049,45.001,0.00,0.13,-272.51,-272.59,-36,603,-18,33.8,17.6,5.8,33.5,18.3,6.2,5.73,2.46,11.4,36.3
2013-07-25 00:39:00,0.0,1.86893,0.00055,377.093,0.103,1.2443,0.0077,139.997,45.001,32254.69321,1.89262,382.975,42.897,45.049,45.001,0.00,0.13,-272.51,-272.59,-36,603,-18,33.8,17.8,6.0,33.6,18.5,6.3,5.73,2.44,11.4,36.3
2013-07-25 00:40:00,0.0,1.87024,0.00053,376.817,0.087,1.2631,0.0080,140.004,45.001,32257.29284,1.89434,382.778,42.923,45.049,45.001,0.00,0.14,-272.51,-272.60,-36,603,-18,33.8,18.1,6.2,33.6,18.8,6.6,5.73,2.37,11.4,36.3
2013-07-25 00:41:00,0.0,1.87058,0.00073,376.856,0.088,1.2609,0.0093,139.999,45.001,32259.27844,1.89476,382.815,42.920,45.049,45.001,0.00,0.13,-272.51,-272.60,-36,604,-18,33.8,18.0,6.2,33.6,18.8,6.6,5.73,2.44,11.4,36.4
2013-07-25 00:42:00,0.0,1.87112,0.00107,376.750,0.096,1.2755,0.0078,140.001,45.001,32260.93333,1.89548,382.773,42.906,45.049,45.001,0.00,0.13,-272.51,-272.60,-36,603,-18,33.8,18.3,6.4,33.6,19.0,6.8,5.73,2.47,11.4,36.4
2013-07-25 00:43:00,0.0,1.87236,0.00066,376.714,0.091,1.2873,0.0074,139.997,45.001,32260.59105,1.89713,382.796,42.938,45.049,45.001,0.00,0.14,-272.51,-272.59,-36,603,-18,33.8,18.4,6.5,33.6,19.2,6.9,5.73,2.39,11.4,36.3
2013-07-25 00:44:00,0.0,1.87231,0.00060,376.752,0.048,1.2855,0.0078,140.001,45.001,32262.49865,1.89700,382.825,42.938,45.049,45.001,0.00,0.14,-272.51,-272.59,-36,603,-18,33.8,18.4,6.5,33.6,19.1,6.8,5.73,2.39,11.4,36.3
2013-07-25 00:45:00,0.0,1.87255,0.00063,376.713,0.086,1.2873,0.0045,140.003,45.001,32263.59923,1.89715,382.791,42.940,45.049,45.001,0.00,0.13,-272.52,-272.59,-36,604,-18,33.8,18.4,6.5,33.6,19.2,6.9,5.73,2.48,11.5,36.3
2013-07-25 00:46:00,0.0,1.87272,0.00061,376.808,0.074,1.2890,0.0063,140.003,45.001,32263.47582,1.89760,382.900,42.941,45.049,45.001,0.00,0.13,-272.51,-272.59,-36,604,-18,33.8,18.4,6.5,33.6,19.2,6.9,5.73,2.41,11.5,36.4
2013-07-25 00:47:00,0.0,1.87323,0.00103,376.962,0.104,1.2861,0.0043,139.998,45.001,32263.02721,1.89784,383.039,42.944,45.049,45.001,0.00,0.13,-272.51,-272.59,-36,603,-18,33.8,18.3,6.4,33.6,19.1,6.8,5.73,2.37,11.5,36.5
2013-07-25 00:48:00,0.0,1.87313,0.00055,376.840,0.083,1.2886,0.0073,139.995,45.001,32263.02920,1.89790,382.936,42.957,45.049,45.001,0.00,0.13,-272.52,-272.60,-36,604,-18,33.8,18.4,6.5,33.6,19.1,6.9,5.73,2.46,11.5,36.4
2013-07-25 00:49:00,0.0,1.87368,0.00055,376.875,0.066,1.2922,0.0050,140.000,45.001,32266.74591,1.89858,382.988,42.991,45.049,45.001,0.00,0.14,-272.51,-272.59,-36,604,-18,33.8,18.4,6.5,33.6,19.2,6.9,5.73,2.45,11.5,36.3
2013-07-25 00:50:00,0.0,1.87370,0.00059,376.832,0.060,1.2929,0.0044,139.999,45.001,32269.75977,1.89844,382.942,42.998,45.049,45.001,0.00,0.14,-272.52,-272.60,-36,604,-18,33.9,18.4,6.5,33.6,19.2,7.0,5.73,2.37,11.5,36.2
2013-07-25 00:51:00,0.0,1.87426,0.00042,376.917,0.125,1.2907,0.0091,139.999,45.001,32270.38254,1.89910,383.017,42.999,45.049,45.001,0.00,0.13,-272.52,-272.59,-36,604,-18,33.9,18.4,6.5,33.6,19.1,6.9,5.73,2.42,11.5,36.2
2013-07-25 00:52:00,0.0,1.87428,0.00046,376.887,0.086,1.2957,0.0063,139.997,45.001,32270.23908,1.89922,383.016,43.000,45.049,45.000,0.00,0.13,-272.52,-272.60,-36,604,-18,33.9,18.5,6.6,33.7,19.2,7.0,5.73,2.48,11.5,36.2
2013-07-25 00:53:00,0.0,1.87506,0.00030,376.845,0.138,1.3024,0.0120,140.003,45.001,32271.23534,1.90006,382.998,43.003,45.049,45.001,0.00,0.14,-272.51,-272.60,-36,604,-18,33.9,18.5,6.6,33.6,19.3,7.0,5.73,2.38,11.5,36.2
2013-07-25 00:54:00,0.0,1.87577,0.00089,376.993,0.090,1.2923,0.0079,139.996,45.001,32271.07502,1.90056,383.105,43.005,45.049,45.000,0.00,0.13,-272.52,-272.60,-36,604,-18,33.9,18.4,6.5,33.6,19.1,6.9,5.73,2.39,11.5,36.3
2013-07-25 00:55:00,0.0,1.87659,0.00051,377.062,0.065,1.2934,0.0068,139.998,45.001,32272.49593,1.90154,383.179,43.020,45.049,45.000,0.00,0.13,-272.52,-272.60,-36,604,-18,33.9,18.4,6.5,33.6,19.1,6.9,5.73,2.47,11.5,36.2
2013-07-25 00:56:00,0.0,1.87571,0.00063,376.891,0.122,1.3039,0.0123,140.005,45.001,32275.58776,1.90083,383.067,43.041,45.049,45.001,0.00,0.13,-272.51,-272.60,-36,604,-18,33.9,18.6,6.7,33.6,19.3,7.0,5.73,2.42,11.6,36.2
2013-07-25 00:57:00,0.0,1.87598,0.00084,376.823,0.064,1.3047,0.0054,139.997,45.001,32271.65087,1.90108,382.988,43.059,45.049,45.001,0.00,0.14,-272.51,-272.59,-36,604,-18,33.9,18.6,6.7,33.6,19.3,7.1,5.73,2.37,11.5,36.3
2013-07-25 00:58:00,0.0,1.87608,0.00046,377.036,0.122,1.2968,0.0122,140.003,45.001,32273.75895,1.90105,383.171,43.059,45.049,45.001,0.00,0.13,-272.52,-272.60,-36,604,-18,33.9,18.4,6.6,33.6,19.2,6.9,5.73,2.46,11.6,36.5
2013-07-25 00:59:00,0.0,1.87674,0.00089,377.073,0.130,1.2919,0.0134,139.997,45.001,32273.32117,1.90158,383.184,43.062,45.049,45.001,0.00,0.13,-272.52,-272.59,-36,604,-18,33.9,18.4,6.5,33.7,19.1,6.9,5.73,2.45,11.5,36.4
2013-07-25 01:00:00,0.0,1.88029,0.00162,376.881,0.096,1.2995,0.0108,140.002,45.001,32275.10045,1.90511,383.032,43.063,45.049,45.001,0.00,0.14,-272.51,-272.59,-36,604,-18,33.9,18.5,6.6,33.6,19.2,7.0,5.73,2.36,11.6,36.4
2013-07-25 01:01:00,0.0,1.88224,0.00163,376.792,0.075,1.3055,0.0074,140.000,45.001,32277.22638,1.90735,382.967,43.065,45.049,45.001,0.00,0.14,-272.52,-272.59,-36,604,-18,33.9,18.5,6.7,33.7,19.3,7.0,5.73,2.43,11.6,36.4
2013-07-25 01:02:00,0.0,1.88338,0.00158,376.766,0.111,1.3050,0.0066,139.997,45.001,32276.89139,1.90862,382.935,43.073,45.049,45.001,0.00,0.13,-272.52,-272.59,-36,604,-18,33.9,18.5,6.6,33.7,19.3,7.0,5.73,2.47,11.6,36.4
2013-07-25 01:03:00,0.0,1.88320,0.00110,376.729,0.042,1.3110,0.0060,139.999,45.001,32278.42257,1.90839,382.932,43.082,45.049,45.001,0.00,0.14,-272.51,-272.59,-36,604,-18,33.9,18.6,6.7,33.7,19.4,7.1,5.73,2.37,11.6,36.3
2013-07-25 01:04:00,0.0,1.88359,0.00073,376.807,0.051,1.3017,0.0067,140.000,45.001,32278.63060,1.90875,382.961,43.094,45.049,45.001,0.00,0.13,-272.52,-272.59,-36,604,-18,34.0,18.5,6.7,33.7,19.2,7.0,5.73,2.41,11.6,36.4
2013-07-25 01:05:00,0.0,1.88357,0.00077,376.770,0.096,1.3093,0.0120,140.001,45.001,32279.85403,1.90897,382.965,43.090,45.049,45.001,0.00,0.13,-272.52,-272.60,-37,604,-18,33.9,18.6,6.7,33.7,19.3,7.1,5.73,2.47,11.6,36.4
2013-07-25 01:06:00,0.0,1.88363,0.00026,376.877,0.162,1.3035,0.0119,139.999,45.001,32279.94853,1.90884,383.038,43.119,45.049,45.001,0.00,0.14,-272.51,-272.59,-36,604,-18,33.9,18.5,6.6,33.7,19.2,7.0,5.73,2.39,11.6,36.4
2013-07-25 01:07:00,0.0,1.88319,0.00045,376.864,0.087,1.3117,0.0075,140.000,45.001,32279.89700,1.90858,383.068,43.125,45.049,45.001,0.00,0.13,-272.51,-272.59,-36,604,-18,33.9,18.6,6.8,33.7,19.4,7.1,5.73,2.38,11.6,36.6
2013-07-25 01:08:00,0.0,1.88258,0.00112,376.876,0.123,1.3089,0.0128,140.000,45.001,32279.68198,1.90801,383.068,43.125,45.049,45.001,0.00,0.14,-272.52,-272.59,-36,604,-18,34.0,18.5,6.7,33.7,19.3,7.1,5.73,2.47,11.6,36.6
2013-07-25 01:09:00,0.0,1.88256,0.00122,377.093,0.088,1.2976,0.0080,140.001,45.001,32280.15720,1.90758,383.229,43.125,45.049,45.001,0.00,0.13,-272.51,-272.60,-37,604,-18,34.0,18.4,6.6,33.7,19.1,6.9,5.73,2.41,11.6,36.3
2013-07-25 01:10:00,0.0,1.88231,0.00169,377.154,0.087,1.2960,0.0111,139.999,45.001,32280.89960,1.90733,383.285,43.127,45.049,45.001,0.00,0.14,-272.52,-272.60,-36,604,-18,34.0,18.3,6.5,33.7,19.0,6.9,5.73,2.37,11.6,36.3
2013-07-25 01:11:00,0.0,1.88219,0.00149,377.046,0.167,1.3024,0.0111,140.000,45.001,32281.39451,1.90743,383.216,43.133,45.049,45.001,0.00,0.14,-272.52,-272.60,-36,604,-18,34.0,18.4,6.6,33.7,19.2,7.0,5.73,2.46,11.7,36.5
2013-07-25 01:12:00,0.0,1.88023,0.00255,377.132,0.190,1.2940,0.0168,139.998,45.001,32281.34274,1.90544,383.259,43.167,45.049,45.000,0.00,0.13,-272.52,-272.60,-36,604,-18,34.0,18.3,6.5,33.7,19.0,6.9,5.73,2.44,11.7,36.4
2013-07-25 01:13:00,0.0,1.87954,0.00130,377.308,0.165,1.2815,0.0121,139.999,45.000,32281.74569,1.90411,383.357,43.177,45.049,45.000,0.00,0.14,-272.51,-272.60,-37,604,-18,34.0,18.1,6.3,33.7,18.8,6.7,5.73,2.36,11.7,36.5
2013-07-25 01:14:00,0.0,1.88025,0.00112,377.148,0.116,1.2962,0.0054,140.000,45.000,32281.85799,1.90530,383.286,43.183,45.048,45.000,0.00,0.14,-272.52,-272.60,-36,605,-18,34.0,18.3,6.5,33.7,19.1,6.9,5.73,2.45,11.7,36.4
2013-07-25 01:15:00,0.0,1.88041,0.00183,376.965,0.189,1.3017,0.0087,140.003,45.000,32285.62787,1.90559,383.126,43.188,45.049,45.000,0.00,0.14,-272.51,-272.60,-36,604,-18,34.0,18.4,6.6,33.8,19.1,7.0,5.73,2.44,11.7,36.5
2013-07-25 01:16:00,0.0,1.87982,0.00050,377.119,0.135,1.2980,0.0093,139.997,45.001,32284.78814,1.90479,383.261,43.188,45.049,45.000,0.00,0.14,-272.51,-272.59,-37,604,-18,34.0,18.3,6.6,33.7,19.1,6.9,5.73,2.36,11.7,36.5
2013-07-25 01:17:00,0.0,1.88117,0.00129,377.007,0.218,1.3004,0.0149,139.998,45.000,32285.20329,1.90610,383.172,43.189,45.049,45.000,0.00,0.14,-272.51,-272.59,-37,604,-18,34.0,18.4,6.6,33.8,19.1,7.0,5.73,2.44,11.7,36.5
2013-07-25 01:18:00,0.0,1.88097,0.00151,377.009,0.224,1.3044,0.0131,140.001,45.001,32285.90720,1.90621,383.173,43.188,45.049,45.001,0.00,0.14,-272.52,-272.60,-36,605,-18,34.0,18.3,6.6,33.8,19.1,7.0,5.73,2.46,11.7,36.6
2013-07-25 01:19:00,0.0,1.88297,0.00105,376.903,0.173,1.3068,0.0116,140.000,45.001,32286.65561,1.90808,383.088,43.193,45.049,45.001,0.00,0.14,-272.51,-272.60,-36,604,-18,34.0,18.4,6.7,33.8,19.2,7.1,5.73,2.36,11.7,36.6
2013-07-25 01:20:00,0.0,1.88311,0.00057,376.870,0.068,1.3109,0.0047,139.999,45.001,32286.38683,1.90857,383.069,43.194,45.049,45.001,0.00,0.13,-272.52,-272.60,-37,604,-18,34.0,18.5,6.7,33.8,19.2,7.1,5.73,2.43,11.7,36.6
2013-07-25 01:21:00,0.0,1.88656,0.00300,376.509,0.155,1.3236,0.0055,140.002,45.001,32289.19416,1.91159,382.788,43.195,45.049,45.001,0.00,0.13,-272.51,-272.60,-37,605,-18,34.0,18.7,6.9,33.8,19.5,7.3,5.73,2.46,11.7,36.7
2013-07-25 01:22:00,0.0,1.88549,0.00229,376.478,0.166,1.3309,0.0124,140.002,45.001,32291.55804,1.91142,382.762,43.203,45.049,45.001,0.00,0.14,-272.52,-272.60,-36,605,-18,34.0,18.8,7.0,33.8,19.6,7.4,5.73,2.37,11.7,36.6
2013-07-25 01:23:00,0.0,1.88644,0.00171,376.309,0.127,1.3405,0.0073,139.999,45.001,32290.36162,1.91251,382.647,43.224,45.049,45.001,0.00,0.14,-272.51,-272.59,-36,604,-18,34.0,18.9,7.1,33.8,19.7,7.4,5.73,2.43,11.8,36.5
2013-07-25 01:24:00,0.0,1.89001,0.00238,376.231,0.113,1.3464,0.0070,140.002,45.001,32291.82614,1.91586,382.607,43.241,45.049,45.001,0.00,0.14,-272.52,-272.59,-37,605,-18,34.0,19.0,7.1,33.8,19.8,7.5,5.73,2.47,11.8,36.7
2013-07-25 01:25:00,0.0,1.88984,0.00171,376.163,0.067,1.3466,0.0086,140.001,45.001,32291.99051,1.91612,382.528,43.249,45.049,45.001,0.00,0.14,-272.52,-272.60,-37,605,-18,34.1,19.0,7.2,33.8,19.8,7.6,5.73,2.36,11.8,36.7
2013-07-25 01:26:00,0.0,1.88993,0.00075,376.194,0.072,1.3480,0.0062,139.997,45.001,32289.59877,1.91618,382.569,43.250,45.049,45.001,0.00,0.14,-272.51,-272.60,-36,605,-18,34.1,19.0,7.1,33.9,19.8,7.6,5.73,2.41,11.8,36.6
2013-07-25 01:27:00,0.0,1.88862,0.00051,376.021,0.099,1.3603,0.0082,140.002,45.001,32293.80259,1.91505,382.453,43.251,45.049,45.001,0.00,0.14,-272.51,-272.59,-36,604,-19,34.1,19.2,7.3,33.8,19.9,7.7,5.73,2.47,11.8,36.5
2013-07-25 01:28:00,0.0,1.88939,0.00066,376.124,0.121,1.3582,0.0082,139.999,45.001,32293.10100,1.91578,382.551,43.250,45.049,45.001,0.00,0.14,-272.52,-272.60,-37,605,-18,34.1,19.1,7.3,33.9,19.9,7.7,5.73,2.37,11.8,36.7
2013-07-25 01:29:00,0.0,1.88949,0.00080,376.123,0.167,1.3612,0.0106,139.998,45.001,32293.43592,1.91589,382.555,43.250,45.049,45.001,0.00,0.14,-272.52,-272.59,-37,605,-19,34.1,19.2,7.3,33.8,20.0,7.7,5.73,2.41,11.8,36.6
2013-07-25 01:30:00,0.0,1.88985,0.00080,376.254,0.050,1.3546,0.0043,139.997,45.001,32295.04714,1.91624,382.658,43.251,45.049,45.001,0.00,0.14,-272.51,-272.59,-36,605,-18,34.1,19.1,7.2,33.9,19.9,7.6,5.73,2.47,11.8,36.5
2013-07-25 01:31:00,0.0,1.88905,0.00057,376.162,0.082,1.3617,0.0080,139.998,45.001,32297.15521,1.91556,382.608,43.276,45.049,45.001,0.00,0.14,-272.51,-272.59,-37,605,-19,34.1,19.2,7.3,33.9,20.0,7.7,5.73,2.37,11.8,36.6
2013-07-25 01:32:00,0.0,1.88951,0.00060,376.280,0.055,1.3534,0.0046,139.995,45.001,32294.85785,1.91577,382.682,43.274,45.049,45.001,0.00,0.14,-272.52,-272.59,-37,605,-19,34.1,19.0,7.2,33.9,19.8,7.6,5.73,2.40,11.8,36.6
2013-07-25 01:33:00,0.0,1.88929,0.00094,376.316,0.088,1.3524,0.0075,140.001,45.001,32297.32293,1.91561,382.714,43.302,45.049,45.001,0.00,0.14,-272.51,-272.59,-36,605,-19,34.1,19.0,7.2,33.9,19.8,7.6,5.73,2.47,11.8,36.4
2013-07-25 01:34:00,0.0,1.88956,0.00085,376.184,0.055,1.3618,0.0046,139.996,45.001,32297.26101,1.91586,382.624,43.311,45.049,45.001,0.00,0.14,-272.51,-272.59,-36,605,-19,34.1,19.2,7.3,33.9,19.9,7.7,5.73,2.37,11.8,36.6
2013-07-25 01:35:00,0.0,1.89239,0.00247,376.197,0.045,1.3602,0.0056,139.999,45.001,32296.81661,1.91858,382.633,43.313,45.049,45.001,0.00,0.14,-272.52,-272.59,-37,605,-19,34.1,19.1,7.3,33.9,19.9,7.7,5.73,2.40,11.8,36.6
2013-07-25 01:36:00,0.0,1.89384,0.00152,376.121,0.095,1.3611,0.0080,140.001,45.001,32297.75703,1.92063,382.562,43.315,45.049,45.001,0.00,0.14,-272.52,-272.60,-37,605,-19,34.1,19.2,7.3,33.9,19.9,7.7,5.73,2.47,11.8,36.7
2013-07-25 01:37:00,0.0,1.89274,0.00104,375.889,0.043,1.3793,0.0050,140.000,45.001,32301.31290,1.91945,382.419,43.314,45.049,45.001,0.00,0.14,-272.51,-272.60,-36,605,-19,34.1,19.4,7.5,33.9,20.2,7.9,5.73,2.38,11.9,36.8
2013-07-25 01:38:00,0.0,1.89464,0.00104,375.889,0.084,1.3780,0.0074,139.996,45.001,32301.43519,1.92151,382.407,43.320,45.049,45.001,0.00,0.14,-272.51,-272.60,-37,605,-18,34.1,19.4,7.5,33.9,20.1,7.9,5.73,2.39,11.9,36.8
2013-07-25 01:39:00,0.0,1.89411,0.00179,375.753,0.121,1.3841,0.0070,140.000,45.001,32302.88893,1.92093,382.297,43.324,45.049,45.001,0.00,0.14,-272.52,-272.59,-37,605,-19,34.1,19.4,7.5,33.9,20.2,7.9,5.73,2.48,11.9,36.7
2013-07-25 01:40:00,0.0,1.89457,0.00099,375.777,0.110,1.3764,0.0095,140.001,45.001,32303.00916,1.92144,382.284,43.350,45.049,45.001,0.00,0.14,-272.51,-272.59,-37,605,-19,34.1,19.3,7.4,33.9,20.1,7.9,5.73,2.38,11.9,36.6
2013-07-25 01:41:00,0.0,1.89439,0.00153,375.879,0.094,1.3689,0.0071,139.997,45.001,32301.47608,1.92127,382.355,43.363,45.049,45.001,0.00,0.14,-272.51,-272.60,-36,605,-19,34.2,19.2,7.4,33.9,20.0,7.8,5.73,2.38,11.9,36.6
2013-07-25 01:42:00,0.0,1.89366,0.00124,375.976,0.300,1.3776,0.0087,140.000,45.001,32303.64560,1.92051,382.487,43.370,45.049,45.001,0.00,0.14,-272.52,-272.59,-37,605,-19,34.2,19.3,7.4,33.9,20.1,7.9,5.73,2.47,11.9,36.8
2013-07-25 01:43:00,0.0,1.89349,0.00159,376.050,0.073,1.3682,0.0037,139.998,45.001,32304.04713,1.92012,382.517,43.373,45.049,45.000,0.00,0.14,-272.51,-272.59,-37,605,-19,34.2,19.1,7.3,33.9,20.0,7.8,5.73,2.39,11.9,37.0
2013-07-25 01:44:00,0.0,1.89319,0.00059,376.036,0.047,1.3627,0.0039,139.999,45.001,32303.22181,1.91977,382.485,43.375,45.048,45.000,0.00,0.14,-272.51,-272.60,-37,605,-19,34.2,19.0,7.2,33.9,19.9,7.7,5.73,2.38,11.9,37.0
2013-07-25 01:45:00,0.0,1.89441,0.00158,375.897,0.078,1.3789,0.0095,139.998,45.001,32302.35358,1.92112,382.417,43.377,45.049,45.001,0.00,0.14,-272.52,-272.59,-36,605,-19,34.2,19.3,7.5,33.9,20.1,7.9,5.73,2.47,11.9,36.8
2013-07-25 01:46:00,0.0,1.89460,0.00140,375.971,0.082,1.3839,0.0087,140.004,45.001,32304.91429,1.92160,382.516,43.378,45.049,45.001,0.00,0.14,-272.51,-272.59,-37,605,-19,34.2,19.3,7.5,33.9,20.2,7.9,5.73,2.39,11.9,36.8